Year,Month,Day,Hour,Minute,Value (Times are PST for temperature in C)
2007,04,28,00,00,9.20
2007,04,28,00,01,9.20
2007,04,28,00,02,9.20
2007,04,28,00,03,9.20
2007,04,28,00,04,9.20
2007,04,28,00,05,9.20
2007,04,28,00,06,9.10
2007,04,28,00,07,9.10
2007,04,28,00,08,9.10
2007,04,28,00,09,9.00
2007,04,28,00,10,9.00
2007,04,28,00,11,9.00
2007,04,28,00,12,9.00
2007,04,28,00,13,9.00
2007,04,28,00,14,9.00
2007,04,28,00,15,9.00
2007,04,28,00,16,9.00
2007,04,28,00,17,9.00
2007,04,28,00,18,9.00
2007,04,28,00,19,9.00
2007,04,28,00,20,9.00
2007,04,28,00,21,9.00
2007,04,28,00,22,8.90
2007,04,28,00,23,8.90
2007,04,28,00,24,8.90
2007,04,28,00,25,8.90
2007,04,28,00,26,8.90
2007,04,28,00,27,8.90
2007,04,28,00,28,8.90
2007,04,28,00,29,8.80
2007,04,28,00,30,8.80
2007,04,28,00,31,8.80
2007,04,28,00,32,8.80
2007,04,28,00,33,8.80
2007,04,28,00,34,8.80
2007,04,28,00,35,8.80
2007,04,28,00,36,8.80
2007,04,28,00,37,8.80
2007,04,28,00,38,8.80
2007,04,28,00,39,8.80
2007,04,28,00,40,8.70
2007,04,28,00,41,8.70
2007,04,28,00,42,8.70
2007,04,28,00,43,8.70
2007,04,28,00,44,8.70
2007,04,28,00,45,8.70
2007,04,28,00,46,8.70
2007,04,28,00,47,8.70
2007,04,28,00,48,8.70
2007,04,28,00,49,8.70
2007,04,28,00,50,8.70
2007,04,28,00,51,8.70
2007,04,28,00,52,8.60
2007,04,28,00,53,8.60
2007,04,28,00,54,8.60
2007,04,28,00,55,8.60
2007,04,28,00,56,8.60
2007,04,28,00,57,8.60
2007,04,28,00,58,8.60
2007,04,28,00,59,8.60
2007,04,28,01,00,8.60
2007,04,28,01,01,8.60
2007,04,28,01,02,8.60
2007,04,28,01,03,8.60
2007,04,28,01,04,8.60
2007,04,28,01,05,8.60
2007,04,28,01,06,8.60
2007,04,28,01,07,8.60
2007,04,28,01,08,8.60
2007,04,28,01,09,8.60
2007,04,28,01,10,8.60
2007,04,28,01,11,8.50
2007,04,28,01,12,8.50
2007,04,28,01,13,8.50
2007,04,28,01,14,8.50
2007,04,28,01,15,8.50
2007,04,28,01,16,8.50
2007,04,28,01,17,8.50
2007,04,28,01,18,8.40
2007,04,28,01,19,8.40
2007,04,28,01,20,8.40
2007,04,28,01,21,8.40
2007,04,28,01,22,8.40
2007,04,28,01,23,8.40
2007,04,28,01,24,8.30
2007,04,28,01,25,8.30
2007,04,28,01,26,8.30
2007,04,28,01,27,8.30
2007,04,28,01,28,8.30
2007,04,28,01,29,8.30
2007,04,28,01,30,8.30
2007,04,28,01,31,8.30
2007,04,28,01,32,8.30
2007,04,28,01,33,8.30
2007,04,28,01,34,8.30
2007,04,28,01,35,8.30
2007,04,28,01,36,8.30
2007,04,28,01,37,8.30
2007,04,28,01,38,8.30
2007,04,28,01,39,8.30
2007,04,28,01,40,8.30
2007,04,28,01,41,8.30
2007,04,28,01,42,8.30
2007,04,28,01,43,8.30
2007,04,28,01,44,8.20
2007,04,28,01,45,8.20
2007,04,28,01,46,8.20
2007,04,28,01,47,8.20
2007,04,28,01,48,8.20
2007,04,28,01,49,8.20
2007,04,28,01,50,8.20
2007,04,28,01,51,8.20
2007,04,28,01,52,8.20
2007,04,28,01,53,8.20
2007,04,28,01,54,8.20
2007,04,28,01,55,8.20
2007,04,28,01,56,8.20
2007,04,28,01,57,8.20
2007,04,28,01,58,8.20
2007,04,28,01,59,8.20
2007,04,28,02,00,8.20
2007,04,28,02,01,8.20
2007,04,28,02,02,8.20
2007,04,28,02,03,8.20
2007,04,28,02,04,8.20
2007,04,28,02,05,8.20
2007,04,28,02,06,8.20
2007,04,28,02,07,8.20
2007,04,28,02,08,8.20
2007,04,28,02,09,8.20
2007,04,28,02,10,8.20
2007,04,28,02,11,8.20
2007,04,28,02,12,8.20
2007,04,28,02,13,8.20
2007,04,28,02,14,8.20
2007,04,28,02,15,8.20
2007,04,28,02,16,8.20
2007,04,28,02,17,8.20
2007,04,28,02,18,8.20
2007,04,28,02,19,8.20
2007,04,28,02,20,8.20
2007,04,28,02,21,8.10
2007,04,28,02,22,8.10
2007,04,28,02,23,8.10
2007,04,28,02,24,8.10
2007,04,28,02,25,8.00
2007,04,28,02,26,8.00
2007,04,28,02,27,8.00
2007,04,28,02,28,8.00
2007,04,28,02,29,8.00
2007,04,28,02,30,8.00
2007,04,28,02,31,8.00
2007,04,28,02,32,7.90
2007,04,28,02,33,7.90
2007,04,28,02,34,7.90
2007,04,28,02,35,7.90
2007,04,28,02,36,7.90
2007,04,28,02,37,7.90
2007,04,28,02,38,7.90
2007,04,28,02,39,7.90
2007,04,28,02,40,7.80
2007,04,28,02,41,7.80
2007,04,28,02,42,7.80
2007,04,28,02,43,7.80
2007,04,28,02,44,7.80
2007,04,28,02,45,7.80
2007,04,28,02,46,7.80
2007,04,28,02,47,7.80
2007,04,28,02,48,7.80
2007,04,28,02,49,7.80
2007,04,28,02,50,7.80
2007,04,28,02,51,7.70
2007,04,28,02,52,7.70
2007,04,28,02,53,7.70
2007,04,28,02,54,7.70
2007,04,28,02,55,7.60
2007,04,28,02,56,7.60
2007,04,28,02,57,7.60
2007,04,28,02,58,7.60
2007,04,28,02,59,7.60
2007,04,28,03,00,7.60
2007,04,28,03,01,7.60
2007,04,28,03,02,7.60
2007,04,28,03,03,7.60
2007,04,28,03,04,7.60
2007,04,28,03,05,7.50
2007,04,28,03,06,7.50
2007,04,28,03,07,7.50
2007,04,28,03,08,7.50
2007,04,28,03,09,7.50
2007,04,28,03,10,7.50
2007,04,28,03,11,7.50
2007,04,28,03,12,7.50
2007,04,28,03,13,7.50
2007,04,28,03,14,7.50
2007,04,28,03,15,7.40
2007,04,28,03,16,7.40
2007,04,28,03,17,7.40
2007,04,28,03,18,7.40
2007,04,28,03,19,7.40
2007,04,28,03,20,7.40
2007,04,28,03,21,7.40
2007,04,28,03,22,7.40
2007,04,28,03,23,7.30
2007,04,28,03,24,7.30
2007,04,28,03,25,7.30
2007,04,28,03,26,7.30
2007,04,28,03,27,7.30
2007,04,28,03,28,7.30
2007,04,28,03,29,7.30
2007,04,28,03,30,7.20
2007,04,28,03,31,7.20
2007,04,28,03,32,7.20
2007,04,28,03,33,7.20
2007,04,28,03,34,7.10
2007,04,28,03,35,7.10
2007,04,28,03,36,7.10
2007,04,28,03,37,7.00
2007,04,28,03,38,7.00
2007,04,28,03,39,7.00
2007,04,28,03,40,7.00
2007,04,28,03,41,6.90
2007,04,28,03,42,6.90
2007,04,28,03,43,6.90
2007,04,28,03,44,6.90
2007,04,28,03,45,6.90
2007,04,28,03,46,6.90
2007,04,28,03,47,6.80
2007,04,28,03,48,6.80
2007,04,28,03,49,6.80
2007,04,28,03,50,6.80
2007,04,28,03,51,6.80
2007,04,28,03,52,6.70
2007,04,28,03,53,6.70
2007,04,28,03,54,6.60
2007,04,28,03,55,6.60
2007,04,28,03,56,6.50
2007,04,28,03,57,6.40
2007,04,28,03,58,6.40
2007,04,28,03,59,6.40
2007,04,28,04,00,6.40
2007,04,28,04,01,6.40
2007,04,28,04,02,6.40
2007,04,28,04,03,6.40
2007,04,28,04,04,6.40
2007,04,28,04,05,6.40
2007,04,28,04,06,6.40
2007,04,28,04,07,6.30
2007,04,28,04,08,6.30
2007,04,28,04,09,6.40
2007,04,28,04,10,6.40
2007,04,28,04,11,6.30
2007,04,28,04,12,6.30
2007,04,28,04,13,6.30
2007,04,28,04,14,6.30
2007,04,28,04,15,6.30
2007,04,28,04,16,6.30
2007,04,28,04,17,6.30
2007,04,28,04,18,6.30
2007,04,28,04,19,6.30
2007,04,28,04,20,6.30
2007,04,28,04,21,6.40
2007,04,28,04,22,6.40
2007,04,28,04,23,6.40
2007,04,28,04,24,6.40
2007,04,28,04,25,6.40
2007,04,28,04,26,6.40
2007,04,28,04,27,6.40
2007,04,28,04,28,6.40
2007,04,28,04,29,6.40
2007,04,28,04,30,6.40
2007,04,28,04,31,6.30
2007,04,28,04,32,6.30
2007,04,28,04,33,6.30
2007,04,28,04,34,6.30
2007,04,28,04,35,6.30
2007,04,28,04,36,6.30
2007,04,28,04,37,6.30
2007,04,28,04,38,6.30
2007,04,28,04,39,6.30
2007,04,28,04,40,6.30
2007,04,28,04,41,6.30
2007,04,28,04,42,6.30
2007,04,28,04,43,6.30
2007,04,28,04,44,6.30
2007,04,28,04,45,6.30
2007,04,28,04,46,6.30
2007,04,28,04,47,6.30
2007,04,28,04,48,6.20
2007,04,28,04,49,6.20
2007,04,28,04,50,6.20
2007,04,28,04,51,6.20
2007,04,28,04,52,6.20
2007,04,28,04,53,6.20
2007,04,28,04,54,6.20
2007,04,28,04,55,6.20
2007,04,28,04,56,6.10
2007,04,28,04,57,6.10
2007,04,28,04,58,6.10
2007,04,28,04,59,6.10
2007,04,28,05,00,6.00
2007,04,28,05,01,5.90
2007,04,28,05,02,5.80
2007,04,28,05,03,5.70
2007,04,28,05,04,5.70
2007,04,28,05,05,5.60
2007,04,28,05,06,5.60
2007,04,28,05,07,5.50
2007,04,28,05,08,5.50
2007,04,28,05,09,5.40
2007,04,28,05,10,5.40
2007,04,28,05,11,5.40
2007,04,28,05,12,5.40
2007,04,28,05,13,5.40
2007,04,28,05,14,5.40
2007,04,28,05,15,5.40
2007,04,28,05,16,5.40
2007,04,28,05,17,5.40
2007,04,28,05,18,5.40
2007,04,28,05,19,5.40
2007,04,28,05,20,5.40
2007,04,28,05,21,5.40
2007,04,28,05,22,5.40
2007,04,28,05,23,5.40
2007,04,28,05,24,5.40
2007,04,28,05,25,5.30
2007,04,28,05,26,5.30
2007,04,28,05,27,5.30
2007,04,28,05,28,5.30
2007,04,28,05,29,5.30
2007,04,28,05,30,5.30
2007,04,28,05,31,5.30
2007,04,28,05,32,5.30
2007,04,28,05,33,5.30
2007,04,28,05,34,5.30
2007,04,28,05,35,5.30
2007,04,28,05,36,5.30
2007,04,28,05,37,5.30
2007,04,28,05,38,5.40
2007,04,28,05,39,5.40
2007,04,28,05,40,5.40
2007,04,28,05,41,5.30
2007,04,28,05,42,5.30
2007,04,28,05,43,5.30
2007,04,28,05,44,5.30
2007,04,28,05,45,5.30
2007,04,28,05,46,5.30
2007,04,28,05,47,5.30
2007,04,28,05,48,5.30
2007,04,28,05,49,5.30
2007,04,28,05,50,5.30
2007,04,28,05,51,5.30
2007,04,28,05,52,5.20
2007,04,28,05,53,5.20
2007,04,28,05,54,5.20
2007,04,28,05,55,5.20
2007,04,28,05,56,5.20
2007,04,28,05,57,5.20
2007,04,28,05,58,5.10
2007,04,28,05,59,5.10
2007,04,28,06,00,5.10
2007,04,28,06,01,5.10
2007,04,28,06,02,5.10
2007,04,28,06,03,5.10
2007,04,28,06,04,5.10
2007,04,28,06,05,5.10
2007,04,28,06,06,5.10
2007,04,28,06,07,5.10
2007,04,28,06,08,5.10
2007,04,28,06,09,5.10
2007,04,28,06,10,5.10
2007,04,28,06,11,5.10
2007,04,28,06,12,5.10
2007,04,28,06,13,5.10
2007,04,28,06,14,5.10
2007,04,28,06,15,5.10
2007,04,28,06,16,5.10
2007,04,28,06,17,5.10
2007,04,28,06,18,5.10
2007,04,28,06,19,5.10
2007,04,28,06,20,5.10
2007,04,28,06,21,5.10
2007,04,28,06,22,5.10
2007,04,28,06,23,5.10
2007,04,28,06,24,5.10
2007,04,28,06,25,5.10
2007,04,28,06,26,5.10
2007,04,28,06,27,5.10
2007,04,28,06,28,5.10
2007,04,28,06,29,5.10
2007,04,28,06,30,5.10
2007,04,28,06,31,5.10
2007,04,28,06,32,5.10
2007,04,28,06,33,5.10
2007,04,28,06,34,5.10
2007,04,28,06,35,5.10
2007,04,28,06,36,5.10
2007,04,28,06,37,5.10
2007,04,28,06,38,5.10
2007,04,28,06,39,5.10
2007,04,28,06,40,5.10
2007,04,28,06,41,5.10
2007,04,28,06,42,5.10
2007,04,28,06,43,5.00
2007,04,28,06,44,4.90
2007,04,28,06,45,4.90
2007,04,28,06,46,4.90
2007,04,28,06,47,4.90
2007,04,28,06,48,4.90
2007,04,28,06,49,4.90
2007,04,28,06,50,5.00
2007,04,28,06,51,5.10
2007,04,28,06,52,5.10
2007,04,28,06,53,5.10
2007,04,28,06,54,5.10
2007,04,28,06,55,5.10
2007,04,28,06,56,5.10
2007,04,28,06,57,5.10
2007,04,28,06,58,5.10
2007,04,28,06,59,5.10
2007,04,28,07,00,5.10
2007,04,28,07,01,5.10
2007,04,28,07,02,5.10
2007,04,28,07,03,5.10
2007,04,28,07,04,5.10
2007,04,28,07,05,5.10
2007,04,28,07,06,5.10
2007,04,28,07,07,5.10
2007,04,28,07,08,5.10
2007,04,28,07,09,5.10
2007,04,28,07,10,5.20
2007,04,28,07,11,5.20
2007,04,28,07,12,5.20
2007,04,28,07,13,5.20
2007,04,28,07,14,5.20
2007,04,28,07,15,5.20
2007,04,28,07,16,5.20
2007,04,28,07,17,5.20
2007,04,28,07,18,5.20
2007,04,28,07,19,5.20
2007,04,28,07,20,5.20
2007,04,28,07,21,5.20
2007,04,28,07,22,5.20
2007,04,28,07,23,5.30
2007,04,28,07,24,5.30
2007,04,28,07,25,5.30
2007,04,28,07,26,5.30
2007,04,28,07,27,5.30
2007,04,28,07,28,5.30
2007,04,28,07,29,5.30
2007,04,28,07,30,5.30
2007,04,28,07,31,5.30
2007,04,28,07,32,5.30
2007,04,28,07,33,5.30
2007,04,28,07,34,5.30
2007,04,28,07,35,5.30
2007,04,28,07,36,5.40
2007,04,28,07,37,5.40
2007,04,28,07,38,5.40
2007,04,28,07,39,5.50
2007,04,28,07,40,5.50
2007,04,28,07,41,5.50
2007,04,28,07,42,5.50
2007,04,28,07,43,5.60
2007,04,28,07,44,5.60
2007,04,28,07,45,5.60
2007,04,28,07,46,5.70
2007,04,28,07,47,5.70
2007,04,28,07,48,5.70
2007,04,28,07,49,5.70
2007,04,28,07,50,5.70
2007,04,28,07,51,5.80
2007,04,28,07,52,5.80
2007,04,28,07,53,5.80
2007,04,28,07,54,5.90
2007,04,28,07,55,5.90
2007,04,28,07,56,5.90
2007,04,28,07,57,6.00
2007,04,28,07,58,6.00
2007,04,28,07,59,6.00
2007,04,28,08,00,6.10
2007,04,28,08,01,6.10
2007,04,28,08,02,6.20
2007,04,28,08,03,6.20
2007,04,28,08,04,6.20
2007,04,28,08,05,6.30
2007,04,28,08,06,6.40
2007,04,28,08,07,6.40
2007,04,28,08,08,6.40
2007,04,28,08,09,6.50
2007,04,28,08,10,6.60
2007,04,28,08,11,6.60
2007,04,28,08,12,6.70
2007,04,28,08,13,6.80
2007,04,28,08,14,6.80
2007,04,28,08,15,6.80
2007,04,28,08,16,6.90
2007,04,28,08,17,6.90
2007,04,28,08,18,6.90
2007,04,28,08,19,7.00
2007,04,28,08,20,7.10
2007,04,28,08,21,7.10
2007,04,28,08,22,7.20
2007,04,28,08,23,7.20
2007,04,28,08,24,7.30
2007,04,28,08,25,7.30
2007,04,28,08,26,7.30
2007,04,28,08,27,7.40
2007,04,28,08,28,7.40
2007,04,28,08,29,7.50
2007,04,28,08,30,7.60
2007,04,28,08,31,7.60
2007,04,28,08,32,7.60
2007,04,28,08,33,7.70
2007,04,28,08,34,7.80
2007,04,28,08,35,7.80
2007,04,28,08,36,7.80
2007,04,28,08,37,7.80
2007,04,28,08,38,7.90
2007,04,28,08,39,7.90
2007,04,28,08,40,8.00
2007,04,28,08,41,8.10
2007,04,28,08,42,8.20
2007,04,28,08,43,8.20
2007,04,28,08,44,8.20
2007,04,28,08,45,8.30
2007,04,28,08,46,8.30
2007,04,28,08,47,8.40
2007,04,28,08,48,8.50
2007,04,28,08,49,8.60
2007,04,28,08,50,8.70
2007,04,28,08,51,8.80
2007,04,28,08,52,8.80
2007,04,28,08,53,8.80
2007,04,28,08,54,8.80
2007,04,28,08,55,8.90
2007,04,28,08,56,8.90
2007,04,28,08,57,8.90
2007,04,28,08,58,8.90
2007,04,28,08,59,8.90
2007,04,28,09,00,8.80
2007,04,28,09,01,8.80
2007,04,28,09,02,8.90
2007,04,28,09,03,9.00
2007,04,28,09,04,9.00
2007,04,28,09,05,9.10
2007,04,28,09,06,9.20
2007,04,28,09,07,9.20
2007,04,28,09,08,9.20
2007,04,28,09,09,9.30
2007,04,28,09,10,9.40
2007,04,28,09,11,9.40
2007,04,28,09,12,9.50
2007,04,28,09,13,9.50
2007,04,28,09,14,9.50
2007,04,28,09,15,9.70
2007,04,28,09,16,9.70
2007,04,28,09,17,9.80
2007,04,28,09,18,9.80
2007,04,28,09,19,9.80
2007,04,28,09,20,9.80
2007,04,28,09,21,9.80
2007,04,28,09,22,9.80
2007,04,28,09,23,9.80
2007,04,28,09,24,9.80
2007,04,28,09,25,9.90
2007,04,28,09,26,9.90
2007,04,28,09,27,9.90
2007,04,28,09,28,9.90
2007,04,28,09,29,9.90
2007,04,28,09,30,9.90
2007,04,28,09,31,10.00
2007,04,28,09,32,10.10
2007,04,28,09,33,10.10
2007,04,28,09,34,10.10
2007,04,28,09,35,10.20
2007,04,28,09,36,10.30
2007,04,28,09,37,10.40
2007,04,28,09,38,10.60
2007,04,28,09,39,10.60
2007,04,28,09,40,10.60
2007,04,28,09,41,10.50
2007,04,28,09,42,10.40
2007,04,28,09,43,10.40
2007,04,28,09,44,10.40
2007,04,28,09,45,10.40
2007,04,28,09,46,10.40
2007,04,28,09,47,10.40
2007,04,28,09,48,10.50
2007,04,28,09,49,10.60
2007,04,28,09,50,10.70
2007,04,28,09,51,10.80
2007,04,28,09,52,10.90
2007,04,28,09,53,10.90
2007,04,28,09,54,10.90
2007,04,28,09,55,11.00
2007,04,28,09,56,11.10
2007,04,28,09,57,11.10
2007,04,28,09,58,11.20
2007,04,28,09,59,11.20
2007,04,28,10,00,11.30
2007,04,28,10,01,11.20
2007,04,28,10,02,11.10
2007,04,28,10,03,11.10
2007,04,28,10,04,11.10
2007,04,28,10,05,11.10
2007,04,28,10,06,11.10
2007,04,28,10,07,11.10
2007,04,28,10,08,11.10
2007,04,28,10,09,11.10
2007,04,28,10,10,11.10
2007,04,28,10,11,11.10
2007,04,28,10,12,11.10
2007,04,28,10,13,11.10
2007,04,28,10,14,11.10
2007,04,28,10,15,11.10
2007,04,28,10,16,11.10
2007,04,28,10,17,11.10
2007,04,28,10,18,11.10
2007,04,28,10,19,11.10
2007,04,28,10,20,11.10
2007,04,28,10,21,11.20
2007,04,28,10,22,11.20
2007,04,28,10,23,11.20
2007,04,28,10,24,11.30
2007,04,28,10,25,11.30
2007,04,28,10,26,11.30
2007,04,28,10,27,11.40
2007,04,28,10,28,11.40
2007,04,28,10,29,11.30
2007,04,28,10,30,11.30
2007,04,28,10,31,11.30
2007,04,28,10,32,11.30
2007,04,28,10,33,11.30
2007,04,28,10,34,11.30
2007,04,28,10,35,11.40
2007,04,28,10,36,11.60
2007,04,28,10,37,11.60
2007,04,28,10,38,11.60
2007,04,28,10,39,11.70
2007,04,28,10,40,11.80
2007,04,28,10,41,11.80
2007,04,28,10,42,11.80
2007,04,28,10,43,11.80
2007,04,28,10,44,11.80
2007,04,28,10,45,11.60
2007,04,28,10,46,11.50
2007,04,28,10,47,11.40
2007,04,28,10,48,11.30
2007,04,28,10,49,11.20
2007,04,28,10,50,11.20
2007,04,28,10,51,11.10
2007,04,28,10,52,11.10
2007,04,28,10,53,11.10
2007,04,28,10,54,11.00
2007,04,28,10,55,10.90
2007,04,28,10,56,11.00
2007,04,28,10,57,11.10
2007,04,28,10,58,11.20
2007,04,28,10,59,11.40
2007,04,28,11,00,11.40
2007,04,28,11,01,11.40
2007,04,28,11,02,11.50
2007,04,28,11,03,11.60
2007,04,28,11,04,11.60
2007,04,28,11,05,11.60
2007,04,28,11,06,11.50
2007,04,28,11,07,11.40
2007,04,28,11,08,11.40
2007,04,28,11,09,11.40
2007,04,28,11,10,11.20
2007,04,28,11,11,11.20
2007,04,28,11,12,11.20
2007,04,28,11,13,11.20
2007,04,28,11,14,11.20
2007,04,28,11,15,11.30
2007,04,28,11,16,11.40
2007,04,28,11,17,11.40
2007,04,28,11,18,11.40
2007,04,28,11,19,11.50
2007,04,28,11,20,11.60
2007,04,28,11,21,11.60
2007,04,28,11,22,11.60
2007,04,28,11,23,11.60
2007,04,28,11,24,11.60
2007,04,28,11,25,11.60
2007,04,28,11,26,11.60
2007,04,28,11,27,11.70
2007,04,28,11,28,11.70
2007,04,28,11,29,11.70
2007,04,28,11,30,11.80
2007,04,28,11,31,11.80
2007,04,28,11,32,11.80
2007,04,28,11,33,11.70
2007,04,28,11,34,11.60
2007,04,28,11,35,11.70
2007,04,28,11,36,11.70
2007,04,28,11,37,11.80
2007,04,28,11,38,11.80
2007,04,28,11,39,11.90
2007,04,28,11,40,11.90
2007,04,28,11,41,12.00
2007,04,28,11,42,12.10
2007,04,28,11,43,12.10
2007,04,28,11,44,12.10
2007,04,28,11,45,12.00
2007,04,28,11,46,11.90
2007,04,28,11,47,11.90
2007,04,28,11,48,12.00
2007,04,28,11,49,12.00
2007,04,28,11,50,12.00
2007,04,28,11,51,12.00
2007,04,28,11,52,12.00
2007,04,28,11,53,12.10
2007,04,28,11,54,12.10
2007,04,28,11,55,12.10
2007,04,28,11,56,12.20
2007,04,28,11,57,12.30
2007,04,28,11,58,12.30
2007,04,28,11,59,12.30
2007,04,28,12,00,12.30
2007,04,28,12,01,12.20
2007,04,28,12,02,12.20
2007,04,28,12,03,12.10
2007,04,28,12,04,12.10
2007,04,28,12,05,12.10
2007,04,28,12,06,12.10
2007,04,28,12,07,12.00
2007,04,28,12,08,12.10
2007,04,28,12,09,12.20
2007,04,28,12,10,12.30
2007,04,28,12,11,12.30
2007,04,28,12,12,12.30
2007,04,28,12,13,12.30
2007,04,28,12,14,12.30
2007,04,28,12,15,12.30
2007,04,28,12,16,12.30
2007,04,28,12,17,12.40
2007,04,28,12,18,12.40
2007,04,28,12,19,12.40
2007,04,28,12,20,12.30
2007,04,28,12,21,12.30
2007,04,28,12,22,12.40
2007,04,28,12,23,12.40
2007,04,28,12,24,12.50
2007,04,28,12,25,12.60
2007,04,28,12,26,12.70
2007,04,28,12,27,12.80
2007,04,28,12,28,12.80
2007,04,28,12,29,12.80
2007,04,28,12,30,12.80
2007,04,28,12,31,12.80
2007,04,28,12,32,12.80
2007,04,28,12,33,12.80
2007,04,28,12,34,12.80
2007,04,28,12,35,12.70
2007,04,28,12,36,12.70
2007,04,28,12,37,12.60
2007,04,28,12,38,12.60
2007,04,28,12,39,12.60
2007,04,28,12,40,12.60
2007,04,28,12,41,12.50
2007,04,28,12,42,12.50
2007,04,28,12,43,12.50
2007,04,28,12,44,12.50
2007,04,28,12,45,12.50
2007,04,28,12,46,12.50
2007,04,28,12,47,12.60
2007,04,28,12,48,12.60
2007,04,28,12,49,12.60
2007,04,28,12,50,12.80
2007,04,28,12,51,12.70
2007,04,28,12,52,12.80
2007,04,28,12,53,12.80
2007,04,28,12,54,12.90
2007,04,28,12,55,12.90
2007,04,28,12,56,12.80
2007,04,28,12,57,12.80
2007,04,28,12,58,12.80
2007,04,28,12,59,12.90
2007,04,28,13,00,13.00
2007,04,28,13,01,13.10
2007,04,28,13,02,13.10
2007,04,28,13,03,13.10
2007,04,28,13,04,13.20
2007,04,28,13,05,13.30
2007,04,28,13,06,13.30
2007,04,28,13,07,13.30
2007,04,28,13,08,13.30
2007,04,28,13,09,13.30
2007,04,28,13,10,13.30
2007,04,28,13,11,13.30
2007,04,28,13,12,13.30
2007,04,28,13,13,13.30
2007,04,28,13,14,13.30
2007,04,28,13,15,13.20
2007,04,28,13,16,13.30
2007,04,28,13,17,13.30
2007,04,28,13,18,13.30
2007,04,28,13,19,13.30
2007,04,28,13,20,13.40
2007,04,28,13,21,13.50
2007,04,28,13,22,13.70
2007,04,28,13,23,13.70
2007,04,28,13,24,13.80
2007,04,28,13,25,13.90
2007,04,28,13,26,13.90
2007,04,28,13,27,13.90
2007,04,28,13,28,13.90
2007,04,28,13,29,13.90
2007,04,28,13,30,14.00
2007,04,28,13,31,14.10
2007,04,28,13,32,14.10
2007,04,28,13,33,14.20
2007,04,28,13,34,14.20
2007,04,28,13,35,14.30
2007,04,28,13,36,14.40
2007,04,28,13,37,14.40
2007,04,28,13,38,14.40
2007,04,28,13,39,14.30
2007,04,28,13,40,14.10
2007,04,28,13,41,14.00
2007,04,28,13,42,13.70
2007,04,28,13,43,13.60
2007,04,28,13,44,13.50
2007,04,28,13,45,13.50
2007,04,28,13,46,13.60
2007,04,28,13,47,13.60
2007,04,28,13,48,13.70
2007,04,28,13,49,13.70
2007,04,28,13,50,13.70
2007,04,28,13,51,13.70
2007,04,28,13,52,13.60
2007,04,28,13,53,13.60
2007,04,28,13,54,13.60
2007,04,28,13,55,13.50
2007,04,28,13,56,13.60
2007,04,28,13,57,13.70
2007,04,28,13,58,13.70
2007,04,28,13,59,13.70
2007,04,28,14,00,13.70
2007,04,28,14,01,13.70
2007,04,28,14,02,13.60
2007,04,28,14,03,13.50
2007,04,28,14,04,13.50
2007,04,28,14,05,13.50
2007,04,28,14,06,13.50
2007,04,28,14,07,13.40
2007,04,28,14,08,13.40
2007,04,28,14,09,13.30
2007,04,28,14,10,13.30
2007,04,28,14,11,13.30
2007,04,28,14,12,13.20
2007,04,28,14,13,13.20
2007,04,28,14,14,13.30
2007,04,28,14,15,13.30
2007,04,28,14,16,13.40
2007,04,28,14,17,13.50
2007,04,28,14,18,13.50
2007,04,28,14,19,13.50
2007,04,28,14,20,13.50
2007,04,28,14,21,13.50
2007,04,28,14,22,13.60
2007,04,28,14,23,13.70
2007,04,28,14,24,13.80
2007,04,28,14,25,13.80
2007,04,28,14,26,13.70
2007,04,28,14,27,13.70
2007,04,28,14,28,13.70
2007,04,28,14,29,13.70
2007,04,28,14,30,13.80
2007,04,28,14,31,13.90
2007,04,28,14,32,13.80
2007,04,28,14,33,13.70
2007,04,28,14,34,13.60
2007,04,28,14,35,13.60
2007,04,28,14,36,13.50
2007,04,28,14,37,13.50
2007,04,28,14,38,13.50
2007,04,28,14,39,13.60
2007,04,28,14,40,13.70
2007,04,28,14,41,13.70
2007,04,28,14,42,13.60
2007,04,28,14,43,13.60
2007,04,28,14,44,13.40
2007,04,28,14,45,13.30
2007,04,28,14,46,13.20
2007,04,28,14,47,13.20
2007,04,28,14,48,13.30
2007,04,28,14,49,13.30
2007,04,28,14,50,13.30
2007,04,28,14,51,13.30
2007,04,28,14,52,13.40
2007,04,28,14,53,13.40
2007,04,28,14,54,13.40
2007,04,28,14,55,13.40
2007,04,28,14,56,13.40
2007,04,28,14,57,13.40
2007,04,28,14,58,13.40
2007,04,28,14,59,13.40
2007,04,28,15,00,13.50
2007,04,28,15,01,13.50
2007,04,28,15,02,13.60
2007,04,28,15,03,13.60
2007,04,28,15,04,13.60
2007,04,28,15,05,13.70
2007,04,28,15,06,13.60
2007,04,28,15,07,13.50
2007,04,28,15,08,13.50
2007,04,28,15,09,13.50
2007,04,28,15,10,13.50
2007,04,28,15,11,13.50
2007,04,28,15,12,13.60
2007,04,28,15,13,13.60
2007,04,28,15,14,13.70
2007,04,28,15,15,13.70
2007,04,28,15,16,13.90
2007,04,28,15,17,13.90
2007,04,28,15,18,14.00
2007,04,28,15,19,14.00
2007,04,28,15,20,14.00
2007,04,28,15,21,14.00
2007,04,28,15,22,14.00
2007,04,28,15,23,14.10
2007,04,28,15,24,14.20
2007,04,28,15,25,14.10
2007,04,28,15,26,14.10
2007,04,28,15,27,14.00
2007,04,28,15,28,14.00
2007,04,28,15,29,13.90
2007,04,28,15,30,13.90
2007,04,28,15,31,13.70
2007,04,28,15,32,13.70
2007,04,28,15,33,13.60
2007,04,28,15,34,13.60
2007,04,28,15,35,13.60
2007,04,28,15,36,13.50
2007,04,28,15,37,13.40
2007,04,28,15,38,13.30
2007,04,28,15,39,13.30
2007,04,28,15,40,13.30
2007,04,28,15,41,13.20
2007,04,28,15,42,13.10
2007,04,28,15,43,13.10
2007,04,28,15,44,13.10
2007,04,28,15,45,13.10
2007,04,28,15,46,13.20
2007,04,28,15,47,13.20
2007,04,28,15,48,13.30
2007,04,28,15,49,13.30
2007,04,28,15,50,13.30
2007,04,28,15,51,13.30
2007,04,28,15,52,13.20
2007,04,28,15,53,13.10
2007,04,28,15,54,13.10
2007,04,28,15,55,13.00
2007,04,28,15,56,12.90
2007,04,28,15,57,12.80
2007,04,28,15,58,12.80
2007,04,28,15,59,12.80
2007,04,28,16,00,12.80
2007,04,28,16,01,12.90
2007,04,28,16,02,12.90
2007,04,28,16,03,13.00
2007,04,28,16,04,13.00
2007,04,28,16,05,13.10
2007,04,28,16,06,13.20
2007,04,28,16,07,13.20
2007,04,28,16,08,13.20
2007,04,28,16,09,13.20
2007,04,28,16,10,13.30
2007,04,28,16,11,13.30
2007,04,28,16,12,13.20
2007,04,28,16,13,13.10
2007,04,28,16,14,13.00
2007,04,28,16,15,13.00
2007,04,28,16,16,13.00
2007,04,28,16,17,13.00
2007,04,28,16,18,13.00
2007,04,28,16,19,13.10
2007,04,28,16,20,13.10
2007,04,28,16,21,13.00
2007,04,28,16,22,13.00
2007,04,28,16,23,12.90
2007,04,28,16,24,12.90
2007,04,28,16,25,12.90
2007,04,28,16,26,13.00
2007,04,28,16,27,13.00
2007,04,28,16,28,13.10
2007,04,28,16,29,13.20
2007,04,28,16,30,13.20
2007,04,28,16,31,13.20
2007,04,28,16,32,13.20
2007,04,28,16,33,13.20
2007,04,28,16,34,13.20
2007,04,28,16,35,13.20
2007,04,28,16,36,13.20
2007,04,28,16,37,13.10
2007,04,28,16,38,13.10
2007,04,28,16,39,13.10
2007,04,28,16,40,13.00
2007,04,28,16,41,13.00
2007,04,28,16,42,12.90
2007,04,28,16,43,12.80
2007,04,28,16,44,12.80
2007,04,28,16,45,12.80
2007,04,28,16,46,12.80
2007,04,28,16,47,12.80
2007,04,28,16,48,12.80
2007,04,28,16,49,12.80
2007,04,28,16,50,12.70
2007,04,28,16,51,12.60
2007,04,28,16,52,12.50
2007,04,28,16,53,12.60
2007,04,28,16,54,12.70
2007,04,28,16,55,12.80
2007,04,28,16,56,12.80
2007,04,28,16,57,12.80
2007,04,28,16,58,12.80
2007,04,28,16,59,12.70
2007,04,28,17,00,12.70
2007,04,28,17,01,12.70
2007,04,28,17,02,12.70
2007,04,28,17,03,12.70
2007,04,28,17,04,12.80
2007,04,28,17,05,12.80
2007,04,28,17,06,12.70
2007,04,28,17,07,12.70
2007,04,28,17,08,12.70
2007,04,28,17,09,12.70
2007,04,28,17,10,12.70
2007,04,28,17,11,12.80
2007,04,28,17,12,12.80
2007,04,28,17,13,12.80
2007,04,28,17,14,12.80
2007,04,28,17,15,12.80
2007,04,28,17,16,12.70
2007,04,28,17,17,12.70
2007,04,28,17,18,12.60
2007,04,28,17,19,12.50
2007,04,28,17,20,12.50
2007,04,28,17,21,12.50
2007,04,28,17,22,12.50
2007,04,28,17,23,12.50
2007,04,28,17,24,12.60
2007,04,28,17,25,12.70
2007,04,28,17,26,12.80
2007,04,28,17,27,12.80
2007,04,28,17,28,12.80
2007,04,28,17,29,12.80
2007,04,28,17,30,12.80
2007,04,28,17,31,12.80
2007,04,28,17,32,12.80
2007,04,28,17,33,12.80
2007,04,28,17,34,12.80
2007,04,28,17,35,12.90
2007,04,28,17,36,12.90
2007,04,28,17,37,12.90
2007,04,28,17,38,12.90
2007,04,28,17,39,12.90
2007,04,28,17,40,12.90
2007,04,28,17,41,12.90
2007,04,28,17,42,12.90
2007,04,28,17,43,12.90
2007,04,28,17,44,12.80